2023/07/18 00:00:00, 0.0,22.5
2023/07/18 00:10:00, 0.0,22.4
2023/07/18 00:20:00, 0.0,22.3
2023/07/18 00:30:00, 0.0,22.4
2023/07/18 00:40:00, 0.0,22.4
2023/07/18 00:50:00, 0.0,22.3
2023/07/18 01:00:00, 0.0,22.0
2023/07/18 01:10:00, 0.0,22.0
2023/07/18 01:20:00, 0.0,22.2
2023/07/18 01:30:00, 0.0,21.9
2023/07/18 01:40:00, 0.0,21.9
2023/07/18 01:50:00, 0.0,22.0
2023/07/18 02:00:00, 0.0,21.9
2023/07/18 02:10:00, 0.0,22.0
2023/07/18 02:20:00, 0.0,22.1
2023/07/18 02:30:00, 0.0,21.9
2023/07/18 02:40:00, 0.0,21.9
2023/07/18 02:50:00, 0.0,21.8
2023/07/18 03:00:00, 0.0,22.3
2023/07/18 03:10:00, 0.0,22.1
2023/07/18 03:20:00, 0.0,21.6
2023/07/18 03:30:00, 0.0,21.6
2023/07/18 03:40:00, 0.0,22.0
2023/07/18 03:50:00, 0.0,21.7
2023/07/18 04:00:00, 0.0,22.9
2023/07/18 04:10:00, 0.0,21.6
2023/07/18 04:20:00, 0.0,21.4
2023/07/18 04:30:00, 0.0,21.3
2023/07/18 04:40:00, 0.0,21.6
2023/07/18 04:50:00, 0.0,21.5
2023/07/18 05:00:00, 0.0,21.6
2023/07/18 05:10:00, 0.0,21.5
2023/07/18 05:20:00, 0.0,22.0
2023/07/18 05:30:00, 0.0,21.8
2023/07/18 05:40:00, 0.0,21.9
2023/07/18 05:50:00, 0.0,22.0
2023/07/18 06:00:00, 0.0,22.5
2023/07/18 06:10:00, 0.0,22.7
2023/07/18 06:20:00, 0.0,22.8
2023/07/18 06:30:00, 0.0,23.4
2023/07/18 06:40:00, 0.0,23.6
2023/07/18 06:50:00, 0.0,24.3
2023/07/18 07:00:00, 0.0,24.2
2023/07/18 07:10:00, 0.0,25.0
2023/07/18 07:20:00, 0.0,26.2
2023/07/18 07:30:00, 0.0,26.8
2023/07/18 07:40:00, 0.0,26.0
2023/07/18 07:50:00, 0.0,26.6
2023/07/18 08:00:00, 0.0,27.3
2023/07/18 08:10:00, 0.0,27.0
2023/07/18 08:20:00, 0.0,27.4
2023/07/18 08:30:00, 0.0,27.3
2023/07/18 08:40:00, 0.0,27.2
2023/07/18 08:50:00, 0.0,28.0
2023/07/18 09:00:00, 0.0,30.1
2023/07/18 09:10:00, 0.0,30.3
2023/07/18 09:20:00, 0.0,29.7
2023/07/18 09:30:00, 0.0,29.8
2023/07/18 09:40:00, 0.0,29.1
2023/07/18 09:50:00, 0.0,29.1
2023/07/18 10:00:00, 0.0,28.4
2023/07/18 10:10:00, 0.0,30.3
2023/07/18 10:20:00, 0.0,31.9
2023/07/18 10:30:00, 0.0,32.0
2023/07/18 10:40:00, 0.1,33.3
2023/07/18 10:50:00, 0.6,33.8
2023/07/18 11:00:00, 0.4,33.5
2023/07/18 11:10:00, 0.2,31.9
2023/07/18 11:20:00, 0.4,33.5
2023/07/18 11:30:00, 0.3,33.3
2023/07/18 11:40:00, 0.2,32.5
2023/07/18 11:50:00, 0.5,33.2
2023/07/18 12:00:00, 0.5,33.8
2023/07/18 12:10:00, 0.5,34.3
2023/07/18 12:20:00, 0.7,34.5
2023/07/18 12:30:00, 0.2,34.0
2023/07/18 12:40:00, 0.0,32.6
2023/07/18 12:50:00, 0.0,32.3
2023/07/18 13:00:00, 0.1,31.5
2023/07/18 13:10:00, 0.6,33.9
2023/07/18 13:20:00, 0.2,32.3
2023/07/18 13:30:00, 0.3,33.1
2023/07/18 13:40:00, 0.5,33.2
2023/07/18 13:50:00, 0.5,33.9
2023/07/18 14:00:00, 0.5,33.8
2023/07/18 14:10:00, 0.2,32.5
2023/07/18 14:20:00, 0.0,31.8
2023/07/18 14:30:00, 0.0,32.9
2023/07/18 14:40:00, 0.2,32.8
2023/07/18 14:50:00, 0.3,32.8
2023/07/18 15:00:00, 0.2,32.9
2023/07/18 15:10:00, 0.1,33.3
2023/07/18 15:20:00, 0.3,33.1
2023/07/18 15:30:00, 0.0,33.3
2023/07/18 15:40:00, 0.0,33.6
2023/07/18 15:50:00, 0.0,32.4
2023/07/18 16:00:00, 0.0,32.8
2023/07/18 16:10:00, 0.0,34.1
2023/07/18 16:20:00, 0.0,34.9
2023/07/18 16:30:00, 0.0,33.5
2023/07/18 16:40:00, 0.0,31.5
2023/07/18 16:50:00, 0.0,34.7
2023/07/18 17:00:00, 0.0,34.5
2023/07/18 17:10:00, 0.0,31.2
2023/07/18 17:20:00, 0.0,30.3
2023/07/18 17:30:00, 0.0,29.8
2023/07/18 17:40:00, 0.0,29.1
2023/07/18 17:50:00, 0.0,29.5
2023/07/18 18:00:00, 0.0,29.6
2023/07/18 18:10:00, 0.0,29.3
2023/07/18 18:20:00, 0.0,28.9
2023/07/18 18:30:00, 0.0,27.6
2023/07/18 18:40:00, 0.0,26.7
2023/07/18 18:50:00, 0.0,26.4
2023/07/18 19:00:00, 0.0,26.2
2023/07/18 19:10:00, 0.0,25.8
2023/07/18 19:20:00, 0.0,25.7
2023/07/18 19:30:00, 0.0,26.0
2023/07/18 19:40:00, 0.0,25.4
2023/07/18 19:50:00, 0.0,25.4
2023/07/18 20:00:00, 0.0,25.4
2023/07/18 20:10:00, 0.0,25.2
2023/07/18 20:20:00, 0.0,25.1
2023/07/18 20:30:00, 0.0,24.9
2023/07/18 20:40:00, 0.0,24.6
2023/07/18 20:50:00, 0.0,24.5
2023/07/18 21:00:00, 0.0,24.3
2023/07/18 21:10:00, 0.0,24.5
2023/07/18 21:20:00, 0.0,24.3
2023/07/18 21:30:00, 0.0,24.3
2023/07/18 21:40:00, 0.0,24.4
2023/07/18 21:50:00, 0.0,24.3
2023/07/18 22:00:00, 0.0,24.2
2023/07/18 22:10:00, 0.0,24.4
2023/07/18 22:20:00, 0.0,24.0
2023/07/18 22:30:00, 0.0,23.9
2023/07/18 22:40:00, 0.0,23.7
2023/07/18 22:50:00, 0.0,23.7
2023/07/18 23:00:00, 0.0,23.5
2023/07/18 23:10:00, 0.0,23.6
2023/07/18 23:20:00, 0.0,23.6
2023/07/18 23:30:00, 0.0,23.5
2023/07/18 23:40:00, 0.0,23.4
2023/07/18 23:50:00, 0.0,23.5
